Flag for Spain

Past Weather in Zaragoza, Spain — July 2019

Now
81 °F

Sunny.


Feels Like: 81 °F
Forecast: 91 / 58 °F
Wind: 26 mph from Northwest

Location: Zaragoza / Aeropuerto

Current Time: Jul 6, 2020 at 1:22:11 pm

Latest Report: Jul 6, 2020 at 12:30 pm


Visibility: 10 mi

Pressure: 30.09 "Hg

Humidity: 51%

Dew Point: 61 °F

Location of ZaragozaLocation

July 2019 Weather in Zaragoza — Graph

°F

High & Low Weather Summary for July 2019

 TemperatureHumidityPressure
High106 °F (Jul 23, 5:30 pm)94% (Jul 8, 10:00 pm)30.18 "Hg (Jul 8, 10:00 pm)
Low61 °F (Jul 10, 7:00 am)11% (Jul 6, 5:30 pm)29.74 "Hg (Jul 27, 1:00 pm)
Average80 °F47%29.96 "Hg
* Reported Jul 1 12:00 am — Jul 31 11:30 pm, Zaragoza. Weather by CustomWeather, © 2020

Note: Actual official high and low records may vary slightly from our data, if they occured in-between our weather recording intervals... More about our weather records

Zaragoza Weather History for July 1, 2019

Scroll right to see more
 ConditionsComfort  
Time TempWeatherWind HumidityBarometerVisibility
12:00 am
Mon, Jul 1
88 °FClear.12 mph29%29.95 "Hg10 mi
12:30 am86 °FClear.8 mph31%29.95 "Hg10 mi
1:00 am84 °FClear.10 mph33%29.95 "Hg10 mi
1:30 am82 °FClear.5 mph35%29.98 "Hg10 mi
2:00 am81 °FClear.7 mph37%29.98 "Hg10 mi
2:30 am81 °FClear.8 mph39%29.98 "Hg10 mi
3:00 am81 °FClear.12 mph39%29.98 "Hg10 mi
3:30 am79 °FPassing clouds.8 mph42%30.01 "HgN/A
4:00 am75 °FClear.12 mph54%30.01 "Hg10 mi
4:30 am73 °FClear.16 mph57%30.01 "Hg10 mi
5:00 am72 °FClear.20 mph61%30.04 "Hg10 mi
5:30 am70 °FClear.20 mph64%30.04 "Hg10 mi
6:00 am68 °FClear.20 mph69%30.07 "Hg10 mi
6:30 am68 °FPassing clouds.20 mph69%30.07 "HgN/A
7:00 am68 °FPassing clouds.20 mph69%30.07 "HgN/A
7:30 am68 °FSunny.18 mph69%30.07 "Hg10 mi
8:00 am68 °FSunny.18 mph69%30.09 "Hg10 mi
8:30 am70 °FSunny.22 mph64%30.09 "Hg10 mi
9:00 am72 °FSunny.20 mph61%30.09 "Hg10 mi
9:30 am72 °FPassing clouds.15 mph61%30.09 "HgN/A
10:00 am73 °FPassing clouds.15 mph57%30.09 "HgN/A
10:30 am75 °FPassing clouds.14 mph57%30.09 "HgN/A
11:00 am75 °FPassing clouds.14 mph54%30.09 "HgN/A
11:30 am77 °FPassing clouds.13 mph51%30.07 "HgN/A
12:00 pm81 °FPassing clouds.9 mph45%30.07 "HgN/A
12:30 pm82 °FPassing clouds.9 mph40%30.07 "HgN/A
1:00 pm84 °FPassing clouds.9 mph37%30.04 "HgN/A
1:30 pm84 °FPassing clouds.9 mph37%30.04 "HgN/A
2:00 pm86 °FPassing clouds.8 mph35%30.04 "HgN/A
2:30 pm88 °FPassing clouds.8 mph33%30.01 "HgN/A
3:00 pm90 °FPassing clouds.8 mph31%30.01 "HgN/A
3:30 pm90 °FPassing clouds.7 mph31%29.98 "HgN/A
4:00 pm91 °FPassing clouds.8 mph30%29.98 "HgN/A
4:30 pm93 °FPassing clouds.8 mph28%29.98 "HgN/A
5:00 pm91 °FPassing clouds.10 mph30%29.95 "HgN/A
5:30 pm91 °FPassing clouds.14 mph30%29.95 "HgN/A
6:00 pm90 °FPassing clouds.16 mph29%29.95 "HgN/A
6:30 pm90 °FScattered clouds.15 mph29%29.95 "HgN/A
7:00 pm88 °FScattered clouds.18 mph33%29.95 "HgN/A
7:30 pm84 °FScattered showers. Scattered clouds.23 mph40%29.95 "Hg6 mi
8:00 pm81 °FScattered showers. Scattered clouds.22 mph45%29.98 "Hg5 mi
8:30 pm81 °FScattered showers. Scattered clouds.20 mph42%29.98 "Hg6 mi
9:00 pm79 °FScattered clouds.20 mph45%30.04 "HgN/A
9:30 pm75 °FScattered clouds.24 mph50%30.04 "HgN/A
10:00 pm75 °FPassing clouds.20 mph50%30.07 "HgN/A
10:30 pm73 °FPassing clouds.16 mph53%30.07 "HgN/A
11:00 pm73 °FPassing clouds.16 mph53%30.09 "HgN/A
11:30 pm73 °FPassing clouds.13 mph53%30.09 "HgN/A
Weather by CustomWeather, © 2020

See weather overview